Skip Page Navigation
NASA JPL Caltech
NASA Logo - Jet Propulsion Laboratory + View the NASA Portal
+ Near-Earth Object (NEO) Program
Search JPL
JPL Home Earth Solar System Stars & Galaxies Technology
JPL Solar System Dynamics
BODIES ORBITS EPHEMERIDES TOOLS PHYSICAL DATA DISCOVERY FAQ SITE MAP
JPL Small-Body Database Browser
Search: [ help ]  
9606 (1992 BZ)
Classification: Main-belt Asteroid          SPK-ID: 2009606
Ephemeris | Orbit Diagram | Orbital Elements | Physical Parameters | Discovery Circumstances ]

[ show orbit diagram ]
Orbital Elements at Epoch 2457000.5 (2014-Dec-09.0) TDB
Reference: JPL 12 (heliocentric ecliptic J2000)
 Element Value Uncertainty (1-sigma)   Units 
e .128888403432462 5.1652e-08  
a 2.453908347780115 1.2537e-08 AU
q 2.137628018665145 1.2486e-07 AU
i 3.106546185976707 5.7783e-06 deg
node 74.27884500555261 8.9496e-05 deg
peri 27.70901411910044 9.2011e-05 deg
M 8.380312273239294 1.9582e-05 deg
tp 2456967.815365328572
(2014-Nov-06.31536533)
7.6369e-05 JED
period 1404.060862897422
3.84
1.076e-05
2.946e-08
d
yr
n .2563991415992491 1.9648e-09 deg/d
Q 2.770188676895085 1.4152e-08 AU
  Orbit Determination Parameters
   # obs. used (total)      1019  
   data-arc span      11357 days (31.09 yr)  
   first obs. used      1983-12-25  
   last obs. used      2015-01-28  
   planetary ephem.      DE431  
   SB-pert. ephem.      SB431-BIG16  
   condition code      0  
   fit RMS      .53808  
   data source      ORB  
   producer      Otto Matic  
   solution date      2015-Feb-04 13:26:41  

Additional Information
 Earth MOID = 1.15491 AU 
 T_jup = 3.480 
[ show covariance matrix ]

Ephemeris | Orbit Diagram | Orbital Elements | Physical Parameters | Discovery Circumstances ]

Physical Parameter Table
Parameter Symbol Value Units Sigma Reference Notes
absolute magnitude H 14.1 mag n/a MPO309226  

9606 (1992 BZ)          Discovered 1992-Jan-28 by Ueda, S., Kaneda, H. at Kushiro (399)
Reference: 19981110/Numbers.arcLast Updated: 2004-04-19

Alternate Designations
 1992 BZ = 1983 YD = 1988 AC3 = 1990 RE8 
Ephemeris | Orbit Diagram | Orbital Elements | Physical Parameters | Discovery Circumstances ]
ABOUT SSD CREDITS/AWARDS PRIVACY/COPYRIGHT GLOSSARY LINKS
FirstGov 2015-Mar-01 16:40 UT
(server date/time)  
NASA Home Page
Site Manager:   Ryan S. Park
Webmaster  Alan B. Chamberlin